This demonstration page uses our WeatherBlox Daily Observations layout. Learn more.

36.17497, -115.13722

Hourly Observations for February 15, 2018

Temp ( °F °C ) Dew Point ( °F °C ) Humidity (%) Winds ( mph kmh ) Pressure ( in mb ) Visibility ( mi km ) Precip ( " mm )
12:53 am 00:53 Clear 51 10.6 34 1.1 52 52 E 5 7 30.05 1018 10 16.0934 0 0
1:53 am 01:53 Clear 49 9.4 35 1.7 59 59 NE 8 13 30.06 1018 10 16.0934 0 0
2:53 am 02:53 Clear 47 8.3 36 2.2 66 66 N 7 11 30.07 1018 10 16.0934 0 0
3:53 am 03:53 Clear 46 7.8 34 1.1 63 63 N 7 11 30.08 1019 10 16.0934 0 0
4:53 am 04:53 Clear 48 8.9 33 0.6 56 56 N 14 22 30.1 1019 10 16.0934 0 0
5:53 am 05:53 Cloudy 47 8.3 33 0.6 59 59 NNE 13 20 30.12 1020 10 16.0934 0 0
6:53 am 06:53 Mostly Cloudy 49 9.4 33 0.6 55 55 NE 9 15 30.14 1021 10 16.0934 0 0
7:53 am 07:53 Cloudy 53 11.7 32 0 45 45 N 13 20 30.16 1021 10 16.0934 0 0
8:53 am 08:53 Mostly Cloudy 55 12.8 29 -1.7 37 37 N 13 20 30.19 1022 10 16.0934 0 0
9:53 am 09:53 Sunny 59 15 22 -5.6 24 24 N 14 22 30.21 1023 10 16.0934 0 0
10:53 am 10:53 Sunny 61 16.1 18 -7.8 19 19 NNW 12 19 30.22 1023 10 16.0934 0 0
11:53 am 11:53 Sunny 62 16.7 17 -8.3 17 17 NNW 13 20 30.19 1023 10 16.0934 0 0
12:53 pm 12:53 Sunny 62 16.7 15 -9.4 16 16 N 14 22 30.17 1022 10 16.0934 0 0
1:53 pm 13:53 Sunny 64 17.8 12 -11.1 13 13 N 15 24 30.16 1022 10 16.0934 0 0
2:53 pm 14:53 Sunny 64 17.8 8 -13.3 11 11 N 13 20 30.17 1022 10 16.0934 0 0
3:53 pm 15:53 Sunny 63 17.2 3 -16.1 9 9 NW 15 24 30.17 1022 10 16.0934 0 0
4:53 pm 16:53 Sunny 62 16.7 6 -14.4 11 11 NNE 12 19 30.19 1022 10 16.0934 0 0
5:53 pm 17:53 Clear 58 14.4 7 -13.9 13 13 E 7 11 30.22 1023 10 16.0934 0 0
6:53 pm 18:53 Clear 57 13.9 5 -15 12 12 NE 6 9 30.24 1024 10 16.0934 0 0
7:53 pm 19:53 Clear 55 12.8 5 -15 13 13 NNW 5 7 30.26 1025 10 16.0934 0 0
8:53 pm 20:53 Clear 53 11.7 3 -16.1 13 13 NNW 9 15 30.29 1026 10 16.0934 0 0
9:53 pm 21:53 Clear 53 11.7 5 -15 14 14 NNW 15 24 30.29 1026 10 16.0934 0 0
10:53 pm 22:53 Clear 53 11.7 4 -15.6 13 13 VRB 7 11 30.33 1027 10 16.0934 0 0
11:53 pm 23:53 Clear 50 10 5 -15 16 16 N 9 15 30.34 1027 10 16.0934 0 0

Powered by AerisWeather